Time,TemperatureF,DewpointF,PressureIn,WindDirection,WindDirectionDegrees,WindSpeedMPH,WindSpeedGustMPH,Humidity,HourlyPrecipIn,Conditions,Clouds,dailyrainin,SoftwareType,DateUTC
2013-03-28 00:02:00,37.0,35.0,29.76,NNW,347,11.0,-999.0,94,-99.99,,,-99.99,,2013-03-28 04:02:00,
2013-03-28 00:12:00,37.0,35.0,29.76,NNW,347,11.0,-999.0,94,-99.99,,,-99.99,,2013-03-28 04:12:00,
2013-03-28 00:23:00,37.0,35.0,29.76,North,355,11.0,-999.0,93,-99.99,,,-99.99,,2013-03-28 04:23:00,
2013-03-28 00:32:00,37.0,35.0,29.76,North,360,11.0,-999.0,93,-99.99,,,-99.99,,2013-03-28 04:32:00,
2013-03-28 00:42:00,37.0,35.0,29.76,North,360,11.0,-999.0,93,-99.99,,,-99.99,,2013-03-28 04:42:00,
2013-03-28 00:52:00,37.0,35.0,29.77,NNW,348,11.0,-999.0,93,-99.99,,,-99.99,,2013-03-28 04:52:00,
2013-03-28 01:02:00,37.0,35.0,29.76,North,355,11.0,-999.0,92,-99.99,,,-99.99,,2013-03-28 05:02:00,
2013-03-28 01:12:00,37.0,35.0,29.76,North,355,11.0,-999.0,92,-99.99,,,-99.99,,2013-03-28 05:12:00,
2013-03-28 01:22:00,37.0,35.0,29.77,NNE,18,13.0,-999.0,91,-99.99,,,-99.99,,2013-03-28 05:22:00,
2013-03-28 01:32:00,36.0,34.0,29.77,North,355,11.0,-999.0,91,-99.99,,,-99.99,,2013-03-28 05:32:00,
2013-03-28 01:42:00,36.0,34.0,29.77,North,355,11.0,-999.0,91,-99.99,,,-99.99,,2013-03-28 05:42:00,
2013-03-28 01:52:00,37.0,34.0,29.77,NNE,26,11.0,-999.0,90,-99.99,,,-99.99,,2013-03-28 05:52:00,
2013-03-28 02:02:00,37.0,34.0,29.77,NNE,15,11.0,-999.0,90,-99.99,,,-99.99,,2013-03-28 06:02:00,
2013-03-28 02:12:00,37.0,34.0,29.77,NNE,15,11.0,-999.0,90,-99.99,,,-99.99,,2013-03-28 06:12:00,
2013-03-28 02:22:00,37.0,34.0,29.77,North,355,10.0,-999.0,89,-99.99,,,-99.99,,2013-03-28 06:22:00,
2013-03-28 02:32:00,36.0,33.0,29.78,NNW,348,9.0,-999.0,90,-99.99,,,-99.99,,2013-03-28 06:32:00,
2013-03-28 02:42:00,36.0,33.0,29.78,NNW,348,9.0,-999.0,90,-99.99,,,-99.99,,2013-03-28 06:42:00,
2013-03-28 02:52:00,36.0,33.0,29.78,NNE,18,9.0,-999.0,90,-99.99,,,-99.99,,2013-03-28 06:52:00,
2013-03-28 03:02:00,36.0,33.0,29.78,North,355,8.0,-999.0,90,-99.99,,,-99.99,,2013-03-28 07:02:00,
2013-03-28 03:12:00,36.0,33.0,29.78,North,355,8.0,-999.0,90,-99.99,,,-99.99,,2013-03-28 07:12:00,
2013-03-28 03:22:00,36.0,33.0,29.78,NNE,15,7.0,-999.0,90,-99.99,,,-99.99,,2013-03-28 07:22:00,
2013-03-28 03:32:00,36.0,33.0,29.78,North,360,7.0,-999.0,90,-99.99,,,-99.99,,2013-03-28 07:32:00,
2013-03-28 03:42:00,36.0,33.0,29.78,North,360,7.0,-999.0,90,-99.99,,,-99.99,,2013-03-28 07:42:00,
2013-03-28 03:52:00,37.0,34.0,29.78,North,351,9.0,-999.0,89,-99.99,,,-99.99,,2013-03-28 07:52:00,
2013-03-28 04:02:00,36.0,33.0,29.78,NNW,343,7.0,-999.0,89,-99.99,,,-99.99,,2013-03-28 08:02:00,
2013-03-28 04:12:00,36.0,33.0,29.78,NNW,343,7.0,-999.0,89,-99.99,,,-99.99,,2013-03-28 08:12:00,
2013-03-28 04:21:00,36.0,34.0,29.78,North,355,7.0,-999.0,91,-99.99,,,-99.99,,2013-03-28 08:21:00,
2013-03-28 04:32:00,36.0,34.0,29.78,North,355,7.0,-999.0,91,-99.99,,,-99.99,,2013-03-28 08:32:00,
2013-03-28 04:42:00,36.0,34.0,29.78,North,355,7.0,-999.0,91,-99.99,,,-99.99,,2013-03-28 08:42:00,
2013-03-28 04:52:00,35.0,33.0,29.78,North,350,8.0,-999.0,91,-99.99,,,-99.99,,2013-03-28 08:52:00,
2013-03-28 05:02:00,35.0,33.0,29.78,North,360,8.0,-999.0,91,-99.99,,,-99.99,,2013-03-28 09:02:00,
2013-03-28 05:12:00,35.0,33.0,29.78,North,360,8.0,-999.0,91,-99.99,,,-99.99,,2013-03-28 09:12:00,
2013-03-28 05:22:00,35.0,33.0,29.78,NNW,342,6.0,-999.0,92,-99.99,,,-99.99,,2013-03-28 09:22:00,
2013-03-28 05:32:00,35.0,33.0,29.78,NNW,340,6.0,-999.0,92,-99.99,,,-99.99,,2013-03-28 09:32:00,
2013-03-28 05:42:00,35.0,33.0,29.78,NNW,340,6.0,-999.0,92,-99.99,,,-99.99,,2013-03-28 09:42:00,
2013-03-28 05:52:00,35.0,33.0,29.79,NNW,345,6.0,-999.0,92,-99.99,,,-99.99,,2013-03-28 09:52:00,
2013-03-28 06:03:00,35.0,33.0,29.79,NNW,347,6.0,-999.0,92,-99.99,,,-99.99,,2013-03-28 10:03:00,
2013-03-28 06:12:00,35.0,33.0,29.79,NNW,347,6.0,-999.0,92,-99.99,,,-99.99,,2013-03-28 10:12:00,
2013-03-28 06:22:00,35.0,33.0,29.79,NNW,327,6.0,-999.0,92,-99.99,,,-99.99,,2013-03-28 10:22:00,
2013-03-28 06:33:00,35.0,33.0,29.79,NNW,327,6.0,-999.0,92,-99.99,,,-99.99,,2013-03-28 10:33:00,
2013-03-28 06:42:00,35.0,33.0,29.79,NNW,327,6.0,-999.0,92,-99.99,,,-99.99,,2013-03-28 10:42:00,
2013-03-28 06:53:00,36.0,34.0,29.80,NNW,344,7.0,-999.0,93,-99.99,,,-99.99,,2013-03-28 10:53:00,
2013-03-28 07:02:00,35.0,33.0,29.80,NNW,341,7.0,-999.0,93,-99.99,,,-99.99,,2013-03-28 11:02:00,
2013-03-28 07:12:00,35.0,33.0,29.80,NNW,341,7.0,-999.0,93,-99.99,,,-99.99,,2013-03-28 11:12:00,
2013-03-28 07:23:00,35.0,33.0,29.80,NNW,331,7.0,-999.0,92,-99.99,,,-99.99,,2013-03-28 11:23:00,
2013-03-28 07:32:00,36.0,34.0,29.81,NNW,334,7.0,-999.0,93,-99.99,,,-99.99,,2013-03-28 11:32:00,
2013-03-28 07:42:00,36.0,34.0,29.81,NNW,334,7.0,-999.0,93,-99.99,,,-99.99,,2013-03-28 11:42:00,
2013-03-28 07:52:00,36.0,34.0,29.81,NNW,338,7.0,-999.0,92,-99.99,,,-99.99,,2013-03-28 11:52:00,
2013-03-28 08:02:00,36.0,34.0,29.82,NNW,342,5.0,-999.0,91,-99.99,,,-99.99,,2013-03-28 12:02:00,
2013-03-28 08:12:00,36.0,34.0,29.82,NNW,342,5.0,-999.0,91,-99.99,,,-99.99,,2013-03-28 12:12:00,
2013-03-28 08:22:00,37.0,34.0,29.82,North,5,6.0,-999.0,89,-99.99,,,-99.99,,2013-03-28 12:22:00,
2013-03-28 08:32:00,37.0,34.0,29.82,North,349,6.0,-999.0,88,-99.99,,,-99.99,,2013-03-28 12:32:00,
2013-03-28 08:42:00,37.0,34.0,29.82,North,349,6.0,-999.0,88,-99.99,,,-99.99,,2013-03-28 12:42:00,
2013-03-28 08:52:00,37.0,34.0,29.82,NNW,336,6.0,-999.0,88,-99.99,,,-99.99,,2013-03-28 12:52:00,
2013-03-28 09:02:00,38.0,34.0,29.83,North,349,7.0,-999.0,87,-99.99,,,-99.99,,2013-03-28 13:02:00,
2013-03-28 09:12:00,38.0,34.0,29.83,North,349,7.0,-999.0,87,-99.99,,,-99.99,,2013-03-28 13:12:00,
2013-03-28 09:22:00,38.0,34.0,29.83,NNW,348,7.0,-999.0,86,-99.99,,,-99.99,,2013-03-28 13:22:00,
2013-03-28 09:32:00,39.0,35.0,29.82,North,355,6.0,-999.0,84,-99.99,,,-99.99,,2013-03-28 13:32:00,
2013-03-28 09:42:00,39.0,35.0,29.82,North,355,6.0,-999.0,84,-99.99,,,-99.99,,2013-03-28 13:42:00,
2013-03-28 09:52:00,39.0,35.0,29.83,NW,322,8.0,-999.0,85,-99.99,,,-99.99,,2013-03-28 13:52:00,
2013-03-28 10:02:00,40.0,36.0,29.83,NNW,327,6.0,-999.0,87,-99.99,,,-99.99,,2013-03-28 14:02:00,
2013-03-28 10:12:00,40.0,36.0,29.83,NNW,327,6.0,-999.0,87,-99.99,,,-99.99,,2013-03-28 14:12:00,
2013-03-28 10:22:00,40.0,36.0,29.83,NW,307,5.0,-999.0,87,-99.99,,,-99.99,,2013-03-28 14:22:00,
2013-03-28 10:32:00,41.0,37.0,29.83,NW,326,6.0,-999.0,86,-99.99,,,-99.99,,2013-03-28 14:32:00,
2013-03-28 10:42:00,41.0,37.0,29.83,NW,326,6.0,-999.0,86,-99.99,,,-99.99,,2013-03-28 14:42:00,
2013-03-28 10:52:00,42.0,37.0,29.83,NW,315,6.0,-999.0,83,-99.99,,,-99.99,,2013-03-28 14:52:00,
2013-03-28 11:02:00,42.0,37.0,29.84,NW,325,3.0,-999.0,82,-99.99,,,-99.99,,2013-03-28 15:02:00,
2013-03-28 11:12:00,42.0,37.0,29.84,NW,325,3.0,-999.0,82,-99.99,,,-99.99,,2013-03-28 15:12:00,
2013-03-28 11:22:00,44.0,35.0,29.84,NE,55,5.0,-999.0,71,-99.99,,,-99.99,,2013-03-28 15:22:00,
2013-03-28 11:33:00,45.0,35.0,29.83,ENE,74,7.0,-999.0,68,-99.99,,,-99.99,,2013-03-28 15:33:00,
2013-03-28 11:43:00,45.0,35.0,29.83,ENE,74,7.0,-999.0,68,-99.99,,,-99.99,,2013-03-28 15:43:00,
2013-03-28 11:53:00,45.0,35.0,29.83,ESE,104,3.0,-999.0,68,-99.99,,,-99.99,,2013-03-28 15:53:00,
2013-03-28 12:02:00,45.0,37.0,29.83,West,279,2.0,-999.0,73,-99.99,,,-99.99,,2013-03-28 16:02:00,
2013-03-28 12:12:00,45.0,37.0,29.83,West,279,2.0,-999.0,73,-99.99,,,-99.99,,2013-03-28 16:12:00,
2013-03-28 12:23:00,44.0,37.0,29.83,West,279,2.0,-999.0,77,-99.99,,,-99.99,,2013-03-28 16:23:00,
2013-03-28 12:32:00,43.0,36.0,29.83,NNW,333,4.0,-999.0,77,-99.99,,,-99.99,,2013-03-28 16:32:00,
2013-03-28 12:42:00,43.0,36.0,29.83,NNW,333,4.0,-999.0,77,-99.99,,,-99.99,,2013-03-28 16:42:00,
2013-03-28 12:52:00,43.0,37.0,29.83,WNW,300,5.0,-999.0,78,-99.99,,,-99.99,,2013-03-28 16:52:00,
2013-03-28 13:02:00,43.0,36.0,29.83,WNW,300,5.0,-999.0,76,-99.99,,,-99.99,,2013-03-28 17:02:00,
2013-03-28 13:12:00,43.0,36.0,29.83,WNW,300,5.0,-999.0,76,-99.99,,,-99.99,,2013-03-28 17:12:00,
2013-03-28 13:22:00,42.0,36.0,29.83,WNW,295,4.0,-999.0,79,-99.99,,,-99.99,,2013-03-28 17:22:00,
2013-03-28 13:32:00,43.0,36.0,29.83,NW,309,6.0,-999.0,76,-99.99,,,-99.99,,2013-03-28 17:32:00,
2013-03-28 13:42:00,43.0,36.0,29.83,NW,309,6.0,-999.0,76,-99.99,,,-99.99,,2013-03-28 17:42:00,
2013-03-28 13:52:00,43.0,36.0,29.83,WNW,302,5.0,-999.0,75,-99.99,,,-99.99,,2013-03-28 17:52:00,
2013-03-28 14:02:00,43.0,36.0,29.83,NW,309,5.0,-999.0,77,-99.99,,,-99.99,,2013-03-28 18:02:00,
2013-03-28 14:12:00,43.0,36.0,29.83,NW,309,5.0,-999.0,77,-99.99,,,-99.99,,2013-03-28 18:12:00,
2013-03-28 14:22:00,44.0,36.0,29.83,NW,321,6.0,-999.0,74,-99.99,,,-99.99,,2013-03-28 18:22:00,
2013-03-28 14:32:00,45.0,36.0,29.83,NW,322,6.0,-999.0,71,-99.99,,,-99.99,,2013-03-28 18:32:00,
2013-03-28 14:42:00,45.0,36.0,29.83,NW,322,6.0,-999.0,71,-99.99,,,-99.99,,2013-03-28 18:42:00,
2013-03-28 14:52:00,45.0,35.0,29.83,NNW,327,6.0,-999.0,68,-99.99,,,-99.99,,2013-03-28 18:52:00,
2013-03-28 15:02:00,45.0,35.0,29.83,NW,316,6.0,-999.0,68,-99.99,,,-99.99,,2013-03-28 19:02:00,
2013-03-28 15:12:00,45.0,35.0,29.83,NW,316,6.0,-999.0,68,-99.99,,,-99.99,,2013-03-28 19:12:00,
2013-03-28 15:22:00,45.0,35.0,29.82,NW,316,5.0,-999.0,67,-99.99,,,-99.99,,2013-03-28 19:22:00,
2013-03-28 15:33:00,45.0,36.0,29.82,NW,319,5.0,-999.0,70,-99.99,,,-99.99,,2013-03-28 19:33:00,
2013-03-28 15:42:00,45.0,36.0,29.82,NW,319,5.0,-999.0,70,-99.99,,,-99.99,,2013-03-28 19:42:00,
2013-03-28 15:52:00,47.0,35.0,29.82,WNW,295,7.0,-999.0,63,-99.99,,,-99.99,,2013-03-28 19:52:00,
2013-03-28 16:03:00,47.0,34.0,29.81,WNW,289,5.0,-999.0,61,-99.99,,,-99.99,,2013-03-28 20:03:00,
2013-03-28 16:12:00,47.0,34.0,29.81,WNW,289,5.0,-999.0,61,-99.99,,,-99.99,,2013-03-28 20:12:00,
2013-03-28 16:22:00,45.0,34.0,29.82,NW,306,7.0,-999.0,66,-99.99,,,-99.99,,2013-03-28 20:22:00,
2013-03-28 16:32:00,45.0,35.0,29.82,WNW,300,3.0,-999.0,67,-99.99,,,-99.99,,2013-03-28 20:32:00,
2013-03-28 16:42:00,45.0,35.0,29.82,WNW,300,3.0,-999.0,67,-99.99,,,-99.99,,2013-03-28 20:42:00,
2013-03-28 16:53:00,45.0,35.0,29.82,WNW,299,4.0,-999.0,68,-99.99,,,-99.99,,2013-03-28 20:53:00,
2013-03-28 17:02:00,45.0,35.0,29.82,WNW,300,2.0,-999.0,68,-99.99,,,-99.99,,2013-03-28 21:02:00,
2013-03-28 17:12:00,45.0,35.0,29.82,WNW,300,2.0,-999.0,68,-99.99,,,-99.99,,2013-03-28 21:12:00,
2013-03-28 17:22:00,45.0,35.0,29.82,WNW,299,0.0,-999.0,69,-99.99,,,-99.99,,2013-03-28 21:22:00,
2013-03-28 17:33:00,47.0,35.0,29.82,WNW,300,1.0,-999.0,64,-99.99,,,-99.99,,2013-03-28 21:33:00,
2013-03-28 17:43:00,47.0,35.0,29.82,WNW,300,1.0,-999.0,64,-99.99,,,-99.99,,2013-03-28 21:43:00,
2013-03-28 17:53:00,47.0,35.0,29.82,WNW,299,0.0,-999.0,64,-99.99,,,-99.99,,2013-03-28 21:53:00,
2013-03-28 18:03:00,46.0,35.0,29.83,WNW,299,0.0,-999.0,65,-99.99,,,-99.99,,2013-03-28 22:03:00,
2013-03-28 18:13:00,46.0,35.0,29.83,WNW,299,0.0,-999.0,65,-99.99,,,-99.99,,2013-03-28 22:13:00,
2013-03-28 18:23:00,46.0,35.0,29.83,WNW,300,0.0,-999.0,64,-99.99,,,-99.99,,2013-03-28 22:23:00,
2013-03-28 18:32:00,45.0,35.0,29.83,WNW,299,0.0,-999.0,67,-99.99,,,-99.99,,2013-03-28 22:32:00,
2013-03-28 18:42:00,45.0,35.0,29.83,WNW,299,0.0,-999.0,67,-99.99,,,-99.99,,2013-03-28 22:42:00,
2013-03-28 18:52:00,43.0,35.0,29.83,WNW,299,1.0,-999.0,74,-99.99,,,-99.99,,2013-03-28 22:52:00,
2013-03-28 19:03:00,43.0,36.0,29.84,WNW,300,2.0,-999.0,77,-99.99,,,-99.99,,2013-03-28 23:03:00,
2013-03-28 19:12:00,43.0,36.0,29.84,WNW,300,2.0,-999.0,77,-99.99,,,-99.99,,2013-03-28 23:12:00,
2013-03-28 19:22:00,43.0,36.0,29.84,WNW,299,1.0,-999.0,77,-99.99,,,-99.99,,2013-03-28 23:22:00,
2013-03-28 19:32:00,43.0,35.0,29.84,WNW,299,0.0,-999.0,73,-99.99,,,-99.99,,2013-03-28 23:32:00,
2013-03-28 19:42:00,43.0,35.0,29.84,WNW,299,0.0,-999.0,73,-99.99,,,-99.99,,2013-03-28 23:42:00,
2013-03-28 19:53:00,43.0,36.0,29.85,WNW,299,2.0,-999.0,77,-99.99,,,-99.99,,2013-03-28 23:53:00,
2013-03-28 20:02:00,42.0,36.0,29.85,WNW,299,1.0,-999.0,79,-99.99,,,-99.99,,2013-03-29 00:02:00,
2013-03-28 20:12:00,42.0,36.0,29.85,WNW,299,1.0,-999.0,79,-99.99,,,-99.99,,2013-03-29 00:12:00,
2013-03-28 20:22:00,44.0,35.0,29.86,WNW,299,0.0,-999.0,71,-99.99,,,-99.99,,2013-03-29 00:22:00,
2013-03-28 20:32:00,43.0,36.0,29.86,WNW,300,2.0,-999.0,75,-99.99,,,-99.99,,2013-03-29 00:32:00,
2013-03-28 20:42:00,43.0,36.0,29.86,WNW,300,2.0,-999.0,75,-99.99,,,-99.99,,2013-03-29 00:42:00,
2013-03-28 20:52:00,42.0,36.0,29.86,WNW,299,4.0,-999.0,79,-99.99,,,-99.99,,2013-03-29 00:52:00,
2013-03-28 21:02:00,41.0,36.0,29.86,WNW,299,4.0,-999.0,81,-99.99,,,-99.99,,2013-03-29 01:02:00,
2013-03-28 21:12:00,41.0,36.0,29.86,WNW,299,4.0,-999.0,81,-99.99,,,-99.99,,2013-03-29 01:12:00,
2013-03-28 21:22:00,42.0,36.0,29.86,WNW,299,3.0,-999.0,80,-99.99,,,-99.99,,2013-03-29 01:22:00,
2013-03-28 21:33:00,43.0,35.0,29.86,WNW,299,3.0,-999.0,73,-99.99,,,-99.99,,2013-03-29 01:33:00,
2013-03-28 21:42:00,43.0,35.0,29.86,WNW,299,3.0,-999.0,73,-99.99,,,-99.99,,2013-03-29 01:42:00,
2013-03-28 21:52:00,44.0,35.0,29.86,WNW,299,0.0,-999.0,70,-99.99,,,-99.99,,2013-03-29 01:52:00,
2013-03-28 22:02:00,43.0,34.0,29.86,WNW,299,4.0,-999.0,70,-99.99,,,-99.99,,2013-03-29 02:02:00,
2013-03-28 22:12:00,43.0,34.0,29.86,WNW,299,4.0,-999.0,70,-99.99,,,-99.99,,2013-03-29 02:12:00,
2013-03-28 22:22:00,42.0,35.0,29.87,WNW,299,2.0,-999.0,75,-99.99,,,-99.99,,2013-03-29 02:22:00,
2013-03-28 22:32:00,42.0,34.0,29.86,WNW,299,5.0,-999.0,73,-99.99,,,-99.99,,2013-03-29 02:32:00,
2013-03-28 22:42:00,42.0,34.0,29.86,WNW,299,5.0,-999.0,73,-99.99,,,-99.99,,2013-03-29 02:42:00,
2013-03-28 22:53:00,41.0,34.0,29.86,NW,321,5.0,-999.0,75,-99.99,,,-99.99,,2013-03-29 02:53:00,
2013-03-28 23:02:00,41.0,34.0,29.86,NNW,338,6.0,-999.0,76,-99.99,,,-99.99,,2013-03-29 03:02:00,
2013-03-28 23:12:00,41.0,34.0,29.86,NNW,338,6.0,-999.0,76,-99.99,,,-99.99,,2013-03-29 03:12:00,
2013-03-28 23:22:00,41.0,34.0,29.86,NNW,337,6.0,-999.0,76,-99.99,,,-99.99,,2013-03-29 03:22:00,
2013-03-28 23:32:00,41.0,34.0,29.86,NNW,329,6.0,-999.0,75,-99.99,,,-99.99,,2013-03-29 03:32:00,
2013-03-28 23:42:00,41.0,34.0,29.86,NNW,329,6.0,-999.0,75,-99.99,,,-99.99,,2013-03-29 03:42:00,
2013-03-28 23:53:00,41.0,34.0,29.86,NNW,331,6.0,-999.0,75,-99.99,,,-99.99,,2013-03-29 03:53:00,